This is the latest recevied weather packets stored in our database for station/object WV8BRW. If no packets are shown the sender has not sent any weather packets the latest 10 day(s).
| Time | Temp. | Humidity | Pressure | Rain* | Wind** | Luminosity | Snow |
|---|---|---|---|---|---|---|---|
| 1777919628 | 20° C | 66% | 1010 hPa | 0 mm | - | 62 W/m² | - |
| 1777919326 | 20.56° C | 63% | 1010.2 hPa | 0 mm | - | 88 W/m² | - |
| 1777919023 | 21.11° C | 62% | 1010 hPa | 0 mm | - | 134 W/m² | - |
| 1777918720 | 21.67° C | 59% | 1009.6 hPa | 0 mm | - | 128 W/m² | - |
| 1777918417 | 22.78° C | 58% | 1009.7 hPa | 0 mm | - | 194 W/m² | - |
| 1777918116 | 22.78° C | 54% | 1009.5 hPa | 0 mm | - | 423 W/m² | - |
| 1777917814 | 23.33° C | 59% | 1009.5 hPa | 0 mm | - | 906 W/m² | - |
| 1777917512 | 23.33° C | 54% | 1009.2 hPa | 0 mm | - | 638 W/m² | - |
| 1777917208 | 22.78° C | 59% | 1009.2 hPa | 0 mm | - | 807 W/m² | - |
| 1777916907 | 22.78° C | 59% | 1009.2 hPa | 0 mm | - | 429 W/m² | - |
| 1777916604 | 22.78° C | 52% | 1009.1 hPa | 0 mm | - | 638 W/m² | - |
| 1777916301 | 22.78° C | 60% | 1009.1 hPa | 0 mm | - | 849 W/m² | - |
| 1777915997 | 22.78° C | 59% | 1009.1 hPa | 0 mm | - | 860 W/m² | - |
| 1777915695 | 22.22° C | 62% | 1009.2 hPa | 0 mm | - | 825 W/m² | - |
| 1777915391 | 20.56° C | 65% | 1009.4 hPa | 0 mm | - | 760 W/m² | - |
| 1777915086 | 20.56° C | 65% | 1009.6 hPa | 0 mm | - | 310 W/m² | - |
| 1777914784 | 21.11° C | 59% | 1009.4 hPa | 0 mm | - | 262 W/m² | - |
| 1777914481 | 21.67° C | 65% | 1009.6 hPa | 0 mm | - | 334 W/m² | - |
| 1777914178 | 21.67° C | 67% | 1009.8 hPa | 0 mm | - | 436 W/m² | - |
| 1777913874 | 21.67° C | 62% | 1009.7 hPa | 0 mm | - | 505 W/m² | - |
| 1777913571 | 21.11° C | 60% | 1009.9 hPa | 0 mm | - | 866 W/m² | - |
| 1777913267 | 21.11° C | 62% | 1009.8 hPa | 0 mm | - | 790 W/m² | - |
| 1777912964 | 21.11° C | 65% | 1010.2 hPa | 0 mm | - | 745 W/m² | - |
| 1777912660 | 21.11° C | 63% | 1010.2 hPa | 0 mm | - | 741 W/m² | - |
| 1777912356 | 20.56° C | 63% | 1010.4 hPa | 0 mm | - | 704 W/m² | - |
* Rain latest hour (hover to see other rain measurements)
** Current wind speed in m/s (hover to see current wind gust speed)